• In Spain
  • List of Countries
  • For 7 days
  • Water Temperature
  • Satellite Maps
  • Weather Map
  • Weather Widgets
  • user-avatar
    Login

    Hourly Weather Algiers

    Today, 24 August, Thursday

    Time Temperature Precipitation Wind Pressure Humidity
    00:00 +29°C° 0 mm 4 mps 748 mmHg 50%
    01:00 +29°C° 0 mm 3 mps 748 mmHg 48%
    02:00 +29°C° 0 mm 3 mps 748 mmHg 47%
    03:00 +29°C° 0 mm 3 mps 748 mmHg 45%
    04:00 +29°C° 0 mm 3 mps 748 mmHg 43%
    05:00 +30°C° 0 mm 3 mps 748 mmHg 42%
    06:00 +30°C° 0 mm 3 mps 748 mmHg 41%
    07:00 +33°C° 0 mm 3 mps 749 mmHg 36%
    08:00 +36°C° 0 mm 3 mps 749 mmHg 31%
    09:00 +38°C° 0 mm 3 mps 749 mmHg 26%
    10:00 +39°C° 0 mm 3 mps 749 mmHg 25%
    11:00 +41°C° 0 mm 4 mps 749 mmHg 24%
    12:00 +42°C° 0 mm 4 mps 749 mmHg 22%
    13:00 +41°C° 0 mm 4 mps 749 mmHg 23%
    14:00 +41°C° 0 mm 4 mps 748 mmHg 25%
    15:00 +41°C° 0 mm 4 mps 748 mmHg 26%
    16:00 +40°C° 0 mm 4 mps 748 mmHg 29%
    17:00 +37°C° 0 mm 3 mps 748 mmHg 33%
    18:00 +36°C° 0 mm 3 mps 748 mmHg 36%
    19:00 +35°C° 0 mm 2 mps 748 mmHg 39%
    20:00 +34°C° 0 mm 2 mps 748 mmHg 42%
    21:00 +32°C° 0 mm 1 mps 749 mmHg 45%
    22:00 +32°C° 0 mm 1 mps 749 mmHg 44%
    23:00 +32°C° 0 mm 1 mps 748 mmHg 43%

    Tomorrow, 25 August, Friday

    Time Temperature Precipitation Wind Pressure Humidity
    00:00 +32°C° 0 mm 1 mps 748 mmHg 42%
    01:00 +32°C° 0 mm 1 mps 748 mmHg 40%
    02:00 +32°C° 0 mm 2 mps 748 mmHg 39%
    03:00 +32°C° 0 mm 2 mps 747 mmHg 37%
    04:00 +32°C° 0 mm 2 mps 748 mmHg 36%
    05:00 +32°C° 0 mm 2 mps 748 mmHg 35%
    06:00 +32°C° 0 mm 2 mps 748 mmHg 35%
    07:00 +34°C° 0 mm 2 mps 748 mmHg 32%
    08:00 +36°C° 0 mm 2 mps 749 mmHg 30%
    09:00 +37°C° 0 mm 2 mps 749 mmHg 28%
    10:00 +39°C° 0 mm 2 mps 749 mmHg 27%
    11:00 +40°C° 0 mm 2 mps 748 mmHg 25%
    12:00 +42°C° 0 mm 3 mps 748 mmHg 24%
    13:00 +42°C° 0 mm 3 mps 748 mmHg 25%
    14:00 +40°C° 0 mm 3 mps 747 mmHg 27%
    15:00 +40°C° 0 mm 3 mps 747 mmHg 28%
    16:00 +39°C° 0 mm 3 mps 747 mmHg 32%
    17:00 +37°C° 0 mm 3 mps 747 mmHg 35%
    18:00 +36°C° 0 mm 2 mps 747 mmHg 39%
    19:00 +35°C° 0.1 mm 2 mps 747 mmHg 40%
    20:00 +34°C° 0.1 mm 1 mps 748 mmHg 42%
    21:00 +33°C° 0.1 mm 1 mps 748 mmHg 44%
    22:00 +33°C° 0.1 mm 1 mps 748 mmHg 42%
    23:00 +33°C° 0.1 mm 1 mps 748 mmHg 41%

    Day after tomorrow, 26 August, Saturday

    Time Temperature Precipitation Wind Pressure Humidity
    00:00 +34°C° 0.1 mm 2 mps 747 mmHg 39%
    01:00 +34°C° 0 mm 2 mps 747 mmHg 39%
    02:00 +34°C° 0 mm 2 mps 747 mmHg 38%
    03:00 +34°C° 0 mm 2 mps 747 mmHg 37%
    04:00 +34°C° 0.1 mm 2 mps 747 mmHg 38%
    05:00 +32°C° 0.1 mm 2 mps 747 mmHg 39%
    06:00 +33°C° 0.1 mm 3 mps 747 mmHg 40%
    07:00 +35°C° 0 mm 3 mps 747 mmHg 35%
    08:00 +37°C° 0 mm 3 mps 748 mmHg 30%
    09:00 +39°C° 0 mm 3 mps 748 mmHg 26%
    10:00 +40°C° 0 mm 3 mps 748 mmHg 24%
    11:00 +42°C° 0 mm 3 mps 747 mmHg 22%
    12:00 +43°C° 0 mm 3 mps 747 mmHg 20%
    13:00 +43°C° 0 mm 3 mps 747 mmHg 20%
    14:00 +43°C° 0 mm 4 mps 746 mmHg 20%
    15:00 +43°C° 0 mm 4 mps 746 mmHg 21%
    16:00 +42°C° 0 mm 4 mps 746 mmHg 23%
    17:00 +41°C° 0 mm 4 mps 746 mmHg 26%
    18:00 +38°C° 0 mm 4 mps 746 mmHg 29%
    19:00 +37°C° 0 mm 3 mps 747 mmHg 31%
    20:00 +36°C° 0 mm 3 mps 747 mmHg 33%
    21:00 +35°C° 0 mm 2 mps 747 mmHg 35%
    22:00 +35°C° 0 mm 2 mps 747 mmHg 35%
    23:00 +34°C° 0 mm 1 mps 747 mmHg 35%

    27 August, Sunday

    Time Temperature Precipitation Wind Pressure Humidity
    00:00 +33°C° 0 mm 1 mps 747 mmHg 35%
    01:00 +33°C° 0 mm 1 mps 747 mmHg 36%
    02:00 +33°C° 0 mm 1 mps 747 mmHg 37%
    03:00 +32°C° 0 mm 1 mps 747 mmHg 37%
    04:00 +32°C° 0 mm 1 mps 747 mmHg 37%
    05:00 +32°C° 0 mm 1 mps 747 mmHg 38%
    06:00 +32°C° 0 mm 2 mps 747 mmHg 38%
    07:00 +34°C° 0 mm 1 mps 747 mmHg 33%
    08:00 +36°C° 0 mm 1 mps 748 mmHg 29%
    09:00 +40°C° 0 mm 1 mps 748 mmHg 24%
    10:00 +40°C° 0 mm 2 mps 748 mmHg 23%
    11:00 +41°C° 0 mm 2 mps 748 mmHg 21%
    12:00 +43°C° 0 mm 3 mps 747 mmHg 20%
    13:00 +43°C° 0 mm 3 mps 747 mmHg 21%
    14:00 +43°C° 0 mm 3 mps 747 mmHg 21%
    15:00 +43°C° 0 mm 4 mps 747 mmHg 22%
    16:00 +41°C° 0.2 mm 4 mps 747 mmHg 26%
    17:00 +39°C° 0.2 mm 3 mps 747 mmHg 29%
    18:00 +37°C° 0.2 mm 3 mps 747 mmHg 33%
    19:00 +36°C° 0.2 mm 3 mps 747 mmHg 34%
    20:00 +36°C° 0.2 mm 2 mps 747 mmHg 36%
    21:00 +35°C° 0.2 mm 2 mps 748 mmHg 37%
    22:00 +35°C° 0 mm 2 mps 748 mmHg 37%
    23:00 +35°C° 0 mm 2 mps 747 mmHg 37%

    28 August, Monday

    Time Temperature Precipitation Wind Pressure Humidity
    00:00 +35°C° 0 mm 2 mps 747 mmHg 36%
    01:00 +35°C° 0 mm 2 mps 747 mmHg 36%
    02:00 +35°C° 0 mm 2 mps 747 mmHg 35%
    03:00 +35°C° 0 mm 3 mps 746 mmHg 35%
    04:00 +35°C° 0 mm 3 mps 747 mmHg 35%
    05:00 +35°C° 0 mm 3 mps 747 mmHg 35%
    06:00 +34°C° 0 mm 3 mps 747 mmHg 34%
    07:00 +36°C° 0 mm 2 mps 747 mmHg 30%
    08:00 +38°C° 0 mm 2 mps 747 mmHg 26%
    09:00 +40°C° 0 mm 2 mps 748 mmHg 22%
    10:00 +42°C° 0 mm 3 mps 747 mmHg 21%
    11:00 +43°C° 0 mm 3 mps 747 mmHg 20%
    12:00 +44°C° 0 mm 4 mps 747 mmHg 18%
    13:00 +43°C° 0 mm 4 mps 747 mmHg 20%
    14:00 +43°C° 0 mm 4 mps 747 mmHg 21%
    15:00 +43°C° 0 mm 4 mps 746 mmHg 23%
    16:00 +41°C° 0 mm 4 mps 746 mmHg 27%
    17:00 +38°C° 0 mm 3 mps 747 mmHg 32%
    18:00 +37°C° 0 mm 3 mps 747 mmHg 36%
    19:00 +36°C° 0 mm 2 mps 747 mmHg 39%
    20:00 +35°C° 0 mm 2 mps 747 mmHg 42%
    21:00 +34°C° 0 mm 2 mps 747 mmHg 45%
    22:00 +34°C° 0.1 mm 2 mps 747 mmHg 44%
    23:00 +34°C° 0.1 mm 2 mps 747 mmHg 44%

    29 August, Tuesday

    Time Temperature Precipitation Wind Pressure Humidity
    00:00 +32°C° 0.1 mm 2 mps 746 mmHg 44%
    01:00 +32°C° 0.1 mm 2 mps 746 mmHg 47%
    02:00 +31°C° 0.1 mm 2 mps 746 mmHg 49%
    03:00 +31°C° 0.1 mm 3 mps 746 mmHg 52%
    04:00 +31°C° 0 mm 3 mps 746 mmHg 53%
    05:00 +31°C° 0 mm 3 mps 746 mmHg 54%
    06:00 +31°C° 0 mm 2 mps 746 mmHg 55%
    07:00 +33°C° 0 mm 3 mps 746 mmHg 48%
    08:00 +35°C° 0 mm 3 mps 746 mmHg 41%
    09:00 +36°C° 0 mm 4 mps 746 mmHg 34%
    10:00 +38°C° 0 mm 4 mps 746 mmHg 29%
    11:00 +41°C° 0 mm 5 mps 746 mmHg 24%
    12:00 +43°C° 0 mm 5 mps 746 mmHg 19%
    13:00 +43°C° 0 mm 5 mps 746 mmHg 19%
    14:00 +43°C° 0 mm 5 mps 745 mmHg 19%
    15:00 +43°C° 0 mm 5 mps 745 mmHg 19%
    16:00 +42°C° 0 mm 5 mps 745 mmHg 21%
    17:00 +41°C° 0 mm 5 mps 745 mmHg 24%
    18:00 +38°C° 0 mm 4 mps 745 mmHg 27%
    19:00 +38°C° 0 mm 4 mps 745 mmHg 27%
    20:00 +37°C° 0 mm 4 mps 746 mmHg 27%
    21:00 +37°C° 0 mm 4 mps 746 mmHg 28%
    22:00 +37°C° 0.1 mm 3 mps 746 mmHg 28%
    23:00 +36°C° 0.1 mm 3 mps 746 mmHg 29%
    Show more